Hourly Data Report for October 10, 2015

All times are specified in Local Standard Time (LST). Add 1 hour to adjust for Daylight Saving Time where and when it is observed.

TORONTO INTL A
ONTARIO

43°40'36.000" N
79°37'50.000" W
173.40 m
6158731
71624
YYZ

Download Data

Hourly Data (October 2015)
Hourly Data Report for October 10, 2015
Temp Definition
°C
Dew Point Temp Definition
°C
Rel Hum Definition
%
Wind Dir Definition
10's deg

Wind Spd Definition
km/h
Visibility Definition
km
Stn Press Definition
kPa
Hmdx Definition


Wind Chill Definition


Weather Definition


TIME
00:00 Legend Double Dagger 7.2 4.0 80 30 5 24.1 99.96     LegendNANA
01:00 Legend Double Dagger 6.3 3.6 83 30 9 24.1 99.99     Clear
02:00 Legend Double Dagger 6.8 4.3 84 33 12 24.1 100.03     LegendNANA
03:00 Legend Double Dagger 6.4 3.6 82 32 9 24.1 100.06     LegendNANA
04:00 Legend Double Dagger 5.7 3.4 85 1 10 24.1 100.10     Clear
05:00 Legend Double Dagger 5.4 3.3 86 35 10 24.1 100.12     LegendNANA
06:00 Legend Double Dagger 4.5 2.7 88 1 8 24.1 100.12     LegendNANA
07:00 Legend Double Dagger 5.1 3.3 88 1 5 24.1 100.13     Mostly Cloudy
08:00 Legend Double Dagger 7.1 3.7 79 32 5 24.1 100.20     LegendNANA
09:00 Legend Double Dagger 9.6 2.7 62 11 4 24.1 100.18     LegendNANA
10:00 Legend Double Dagger 11.4 2.5 54 21 7 24.1 100.18     Mainly Clear
11:00 Legend Double Dagger 12.6 4.4 57 21 11 24.1 100.12     LegendNANA
12:00 Legend Double Dagger 12.6 6.0 64 9 9 24.1 100.03     LegendNANA
13:00 Legend Double Dagger 13.4 6.6 63 14 16 24.1 99.93     Mostly Cloudy
14:00 Legend Double Dagger 14.4 6.8 60 14 14 24.1 99.79     LegendNANA
15:00 Legend Double Dagger 14.3 7.2 62 15 14 24.1 99.71     LegendNANA
16:00 Legend Double Dagger 15.0 6.9 58 17 11 24.1 99.64     Mostly Cloudy
17:00 Legend Double Dagger 15.4 4.8 49 21 14 24.1 99.56     LegendNANA
18:00 Legend Double Dagger 13.8 6.7 62 18 14 24.1 99.51     LegendNANA
19:00 Legend Double Dagger 13.2 7.0 66 21 16 24.1 99.51     Mostly Cloudy
20:00 Legend Double Dagger 12.0 6.5 69 23 15 24.1 99.47     LegendNANA
21:00 Legend Double Dagger 11.6 7.0 73 22 16 24.1 99.43     LegendNANA
22:00 Legend Double Dagger 11.1 6.9 75 22 17 24.1 99.39     Mainly Clear
23:00 Legend Double Dagger 10.8 7.2 78 23 18 24.1 99.33     LegendNANA

Notes on Data Quality.

Legend

  • E = Estimated
  • M = Missing
  • NA = Not Available
  • ‡ = Partner data that is not subject to review by the National Climate Archives
Date modified: